[[{"header":{"parameterUnit":"m.s-1","parameterCategory":1,"la1":30.2991,"la2":30.254,"lo1":-89.0895,"lo2":-89.0444,"dx":0.0017,"dy":0.0017,"nx":28,"ny":28,"refTime":"2022-12-29T09:00:00:Z","depth":0,"parameterNumber":2,"parameterNumberName":"U-component_of_WINDS"},"data":[0,0,0,0,0,0,0,0,0,0,0,0,0,0,0,0,0,0,0,0,0,0,0,0,0,0,0,0,0,0,0,0,0,0,0,0,0,0,0,0,0,0,0,0,0,0,0,0,0,0,0,0,0,0,0,0,0,0,-4.7743,-4.7744,0,-4.7834,-4.7835,-4.7836,-4.7798,-4.7796,-4.7793,-4.7791,-4.7885,-4.789,-4.7894,0,0,0,0,0,0,0,0,0,0,0,0,0,-4.7537,-4.7541,-4.7743,-4.7744,-4.7745,-4.7834,-4.7835,-4.7836,-4.7798,-4.7795,-4.7793,-4.779,-4.7884,-4.7889,-4.7895,0,0,0,0,0,0,0,0,0,0,0,0,0,-4.7627,-4.7542,-4.7743,-4.7737,-4.7737,-4.7834,-4.7835,-4.7837,-4.7799,-4.7795,-4.7792,-4.7789,-4.7882,-4.7889,-4.7895,-4.8003,0,0,-4.7916,-4.7919,0,0,0,0,0,0,0,0,-4.7622,-4.7634,-4.7737,-4.7737,-4.7738,-4.7801,-4.7797,-4.7893,-4.78,-4.7775,-4.7791,-4.7787,-4.786,-4.7869,-4.7893,-4.8008,-4.8012,-4.7917,-4.7921,-4.7924,-4.7926,0,0,0,0,0,0,0,-4.7616,-4.763,-4.7779,-4.7738,-4.7739,-4.773,-4.7739,-4.7815,-4.7835,-4.7777,-4.7775,-4.7786,-4.786,-4.7886,-4.7895,-4.8013,-4.7917,-4.7923,-4.7927,-4.793,-4.822,-4.8224,0,0,0,0,0,0,-4.7609,-4.7625,-4.7776,-4.7782,-4.7671,-4.7736,-4.7746,-4.7784,-4.7834,-4.7839,-4.7789,-4.7784,-4.7876,-4.7887,-4.7898,-4.8026,-4.7924,-4.793,-4.7934,-4.8217,-4.8221,-4.8225,0,0,0,0,0,0,-4.7605,-4.7623,-4.7772,-4.7703,-4.7721,-4.7743,-4.7786,-4.7788,-4.7814,-4.7843,-4.7846,-4.7812,-4.7874,-4.7888,-4.7977,-4.8029,-4.7933,-4.794,-4.8213,-4.8218,-4.8223,-4.8285,0,0,0,0,0,0,-4.7599,-4.7622,-4.7663,-4.7704,-4.7725,-4.785,-4.7789,-4.7792,-4.7826,-4.782,-4.7865,-4.787,-4.7873,-4.7967,-4.7984,-4.8037,-4.7945,-4.8208,-4.8215,-4.8221,-4.8278,-4.8291,-4.8303,0,0,0,0,0,-4.7592,-4.7677,-4.7665,-4.7683,-4.7777,-4.7853,-4.7865,-4.7866,-4.783,-4.7872,-4.789,-4.7868,-4.8021,-4.7977,-4.7995,-4.8051,-4.8205,-4.8213,-4.8221,-4.8272,-4.8289,-4.8303,0,0,0,0,0,0,-4.7641,-4.7682,-4.7669,-4.777,-4.7808,-4.7846,-4.7898,-4.7884,-4.7933,-4.7926,-4.7926,-4.7937,-4.8028,-4.8049,-4.7998,-4.8157,-4.8107,-4.812,-4.814,-4.8156,-4.8168,-4.816,-4.7951,0,0,0,0,0,-4.7663,-4.7722,-4.7755,-4.784,-4.786,-4.7876,-4.791,-4.7907,-4.7947,-4.7963,-4.7988,-4.8028,-4.8084,-4.8122,-4.8176,-4.8282,-4.829,-4.8329,-4.8342,-4.8352,-4.8362,-4.8418,-4.8435,-4.8252,-4.8252,-4.8252,0,0,-4.771,-4.774,-4.7777,-4.7851,-4.788,-4.794,-4.789,-4.7956,-4.8001,-4.7973,-4.8058,-4.8078,-4.8122,-4.822,-4.8264,-4.824,-4.8415,-4.8362,-4.837,-4.8374,-4.8428,-4.8445,-4.8461,-4.8258,-4.8257,-4.8256,0,0,-4.7826,-4.7855,-4.7929,-4.796,-4.8005,-4.8015,-4.8033,-4.8074,-4.8085,-4.8171,-4.8151,-4.8205,-4.8303,-4.8335,-4.8364,-4.8493,-4.8474,-4.8511,-4.8575,-4.863,-4.8644,-4.8657,-4.8702,-4.8718,-4.8521,-4.8521,-4.8521,0,-4.7878,-4.7968,-4.7969,-4.8036,-4.8069,-4.8047,-4.8122,-4.8152,-4.8213,-4.8236,-4.8208,-4.833,-4.8359,-4.8463,-4.8494,-4.8519,-4.8539,-4.8504,-4.8642,-4.8655,-4.8667,-4.8709,-4.8726,-4.8525,-4.8525,-4.8524,-4.8524,0,-4.803,-4.8093,-4.8147,-4.8205,-4.8245,-4.8316,-4.8327,-4.8367,-4.8362,-4.8375,-4.8462,-4.8496,-4.8555,-4.8581,-4.8577,-4.8684,-4.8668,-4.8642,-4.8591,-4.8688,-4.8728,-4.8744,-4.8531,-4.8529,-4.8528,-4.8527,0,0,-4.8177,-4.8235,-4.8255,-4.8281,-4.833,-4.8378,-4.8449,-4.8507,-4.854,-4.8584,-4.8642,-4.8726,-4.8702,-4.8735,-4.8734,-4.8783,-4.8881,-4.8751,-4.8752,-4.8772,-4.9,-4.9018,-4.9037,-4.887,-4.8873,-4.8876,-4.8996,0,-4.8295,-4.8417,-4.842,-4.8531,-4.8589,-4.857,-4.8631,-4.8667,-4.8682,-4.8733,-4.875,-4.8808,-4.8773,-4.8793,-4.884,-4.8859,-4.8927,-4.8851,-4.8923,-4.8926,-4.891,-4.9058,-4.9076,-4.9188,-4.9012,-4.9014,-4.9016,0,-4.8448,-4.8495,-4.8613,-4.8652,-4.8677,-4.8731,-4.8785,-4.8834,-4.8875,-4.8883,-4.892,-4.8913,-4.8984,-4.8933,-4.9031,-4.898,-4.901,-4.9024,-4.9028,-4.9033,-4.8975,-4.9064,-4.9224,-4.9239,-4.9041,-4.9039,-4.9037,0,-4.8541,-4.8634,-4.8716,-4.874,-4.8789,-4.8827,-4.885,-4.8888,-4.8923,-4.897,-4.8992,-4.9048,-4.9077,-4.9121,-4.9128,-4.9091,-4.9226,-4.9176,-4.9233,-4.9233,-4.9261,-4.9258,-4.9425,-4.9285,-4.9284,-4.9284,-4.9284,0,-4.8671,-4.8743,-4.8758,-4.8809,-4.8889,-4.8892,-4.8972,-4.8991,-4.9025,-4.9079,-4.9067,-4.9117,-4.9125,-4.9178,-4.9185,-4.9264,-4.9279,-4.9286,-4.9286,-4.9286,-4.9284,-4.9304,-4.9295,-4.9288,-4.9288,-4.9287,-4.9286,0,-4.8787,-4.8801,-4.8888,-4.8928,-4.894,-4.8997,-4.9031,-4.9079,-4.9093,-4.9161,-4.9177,-4.9199,-4.926,-4.9273,-4.9346,-4.935,-4.9444,-4.9438,-4.943,-4.9428,-4.9484,-4.9477,-4.9666,-4.969,-4.9537,-4.9538,-4.9539,0,-4.8867,-4.8922,-4.8968,-4.9003,-4.9027,-4.9083,-4.9119,-4.9125,-4.9162,-4.9213,-4.9255,-4.9315,-4.9363,-4.9462,-4.9485,-4.954,-4.9534,-4.9597,-4.9542,-4.9539,-4.9532,-4.9528,-4.9533,-4.9606,-4.9608,-4.9609,-4.961,0,-4.9008,-4.9013,-4.9064,-4.9118,-4.916,-4.9203,-4.9244,-4.9273,-4.9285,-4.9327,-4.9389,-4.9427,-4.9501,-4.956,-4.9616,-4.9639,-4.9627,-4.9628,-4.9643,-4.9641,-4.9633,-4.9636,-4.9455,-4.9622,-4.9621,-4.962,-4.962,-4.9619,-4.9108,-4.9155,-4.9194,-4.9252,-4.9283,-4.9321,-4.9368,-4.9388,-4.944,-4.95,-4.9501,-4.9569,-4.9609,-4.9682,-4.9709,-4.9763,-4.9743,-4.9766,-4.9772,-4.9777,-4.9781,-4.9627,-4.9773,-4.9773,-4.9773,-4.9772,-4.9772,0,-4.9246,-4.927,-4.9323,-4.938,-4.9426,-4.941,-4.9455,-4.9493,-4.9553,-4.9591,-4.9639,-4.971,-4.9768,-4.9796,-4.9853,-4.989,-4.9885,-4.9904,-4.99,-4.9905,-4.9796,-4.9776,-4.9907,-4.9907,-4.9907,-4.9907,-4.9907,-4.9907,-4.9323,-4.9402,-4.9411,-4.9505,-4.9529,-4.9595,-4.9621,-4.9657,-4.9687,-4.9767,-4.9815,-4.9832,-4.9867,-4.9926,-4.9978,-4.9985,-5.0005,-5.0027,-5.003,-4.9927,-4.9913,-4.99,-4.9881,-5.0032,-5.0032,-5.0135,-5.0136,-5.0137]},{"header":{"parameterUnit":"m.s-1","parameterCategory":1,"la1":30.2991,"la2":30.254,"lo1":-89.0895,"lo2":-89.0444,"dx":0.0017,"dy":0.0017,"nx":28,"ny":28,"refTime":"2022-12-29T09:00:00:Z","depth":0,"parameterNumber":3,"parameterNumberName":"V-component_of_WINDS"},"data":[0,0,0,0,0,0,0,0,0,0,0,0,0,0,0,0,0,0,0,0,0,0,0,0,0,0,0,0,0,0,0,0,0,0,0,0,0,0,0,0,0,0,0,0,0,0,0,0,0,0,0,0,0,0,0,0,0,0,1.4038,1.4038,0,1.4094,1.4094,1.4095,1.4124,1.4125,1.4125,1.4125,1.4184,1.4186,1.4187,0,0,0,0,0,0,0,0,0,0,0,0,0,1.3959,1.396,1.4037,1.4038,1.4039,1.4094,1.4094,1.4095,1.4124,1.4125,1.4125,1.4125,1.4184,1.4185,1.4187,0,0,0,0,0,0,0,0,0,0,0,0,0,1.4002,1.3961,1.4037,1.406,1.4063,1.4093,1.4094,1.4095,1.4124,1.4125,1.4125,1.4125,1.4183,1.4185,1.4188,1.4201,0,0,1.4195,1.4196,0,0,0,0,0,0,0,0,1.3999,1.4005,1.4056,1.4059,1.4061,1.4102,1.4089,1.4131,1.4124,1.4101,1.4125,1.4125,1.4157,1.4161,1.4172,1.4203,1.4206,1.4195,1.4196,1.4197,1.4198,0,0,0,0,0,0,0,1.3996,1.4003,1.406,1.4057,1.406,1.4069,1.4075,1.4097,1.4128,1.4103,1.4105,1.4112,1.4158,1.417,1.4173,1.4207,1.4195,1.4197,1.4198,1.4199,1.4255,1.4255,0,0,0,0,0,0,1.3989,1.4,1.4058,1.4061,1.403,1.407,1.4077,1.4089,1.4128,1.4134,1.4111,1.4113,1.4166,1.4171,1.4176,1.4196,1.4197,1.4199,1.4201,1.4255,1.4255,1.4255,0,0,0,0,0,0,1.3988,1.3994,1.4056,1.4031,1.404,1.4071,1.4085,1.409,1.4101,1.4134,1.414,1.4117,1.4166,1.4172,1.4195,1.4198,1.42,1.4203,1.4255,1.4255,1.4255,1.4234,0,0,0,0,0,0,1.3985,1.3993,1.3998,1.4031,1.4041,1.4073,1.4085,1.4091,1.4105,1.4107,1.4141,1.4146,1.4166,1.4191,1.4197,1.4201,1.4204,1.4255,1.4255,1.4255,1.4235,1.4233,1.4232,0,0,0,0,0,1.3982,1.3989,1.3998,1.4005,1.4047,1.4073,1.4078,1.4101,1.4105,1.411,1.4132,1.4145,1.4196,1.4193,1.42,1.4205,1.4255,1.4255,1.4255,1.4235,1.4234,1.4232,0,0,0,0,0,0,1.3955,1.3994,1.4004,1.4022,1.4044,1.4078,1.4085,1.4098,1.412,1.4121,1.4148,1.4156,1.4176,1.4193,1.4188,1.4221,1.4227,1.4229,1.4209,1.4208,1.4207,1.4203,1.4206,0,0,0,0,0,1.3952,1.3968,1.4002,1.4014,1.4025,1.4053,1.4065,1.408,1.4105,1.4114,1.4137,1.4161,1.4183,1.4196,1.4218,1.4237,1.4246,1.4244,1.4243,1.4242,1.4243,1.4257,1.4257,1.4256,1.4256,1.4256,0,0,1.3944,1.3967,1.3976,1.401,1.4028,1.4047,1.4061,1.4079,1.4093,1.4117,1.414,1.4158,1.4187,1.4208,1.4218,1.4222,1.4246,1.4242,1.4241,1.4243,1.4257,1.4258,1.4258,1.4256,1.4256,1.4256,0,0,1.3939,1.3958,1.3971,1.399,1.4019,1.4038,1.4041,1.4074,1.4086,1.411,1.4129,1.4147,1.4183,1.4203,1.4218,1.4224,1.4238,1.423,1.4225,1.4238,1.4238,1.4238,1.4242,1.4243,1.4231,1.4231,1.4231,0,1.3926,1.3953,1.3977,1.3994,1.401,1.4032,1.4048,1.4065,1.4099,1.411,1.4114,1.4161,1.4182,1.421,1.4211,1.4222,1.4228,1.4227,1.4236,1.4237,1.4237,1.4241,1.4242,1.423,1.4231,1.4231,1.4231,0,1.3937,1.3956,1.3964,1.3996,1.4012,1.4028,1.4056,1.4069,1.4084,1.4103,1.4128,1.4154,1.4182,1.419,1.4204,1.422,1.4222,1.4231,1.4237,1.4236,1.424,1.4242,1.4229,1.4229,1.423,1.423,0,0,1.3916,1.3963,1.3965,1.3981,1.4016,1.4031,1.405,1.4077,1.4089,1.4113,1.413,1.4161,1.417,1.4187,1.4204,1.4216,1.4221,1.4223,1.4224,1.4223,1.4243,1.4237,1.4239,1.423,1.4231,1.4231,1.4241,0,1.3917,1.395,1.3973,1.3998,1.4017,1.404,1.4056,1.408,1.4099,1.4119,1.414,1.4162,1.4171,1.4182,1.4194,1.4218,1.4226,1.4217,1.4249,1.4249,1.4241,1.424,1.4234,1.4242,1.4243,1.4243,1.4244,0,1.3923,1.3946,1.3973,1.4007,1.4016,1.403,1.4058,1.4076,1.4105,1.4118,1.4138,1.4156,1.4178,1.4183,1.4215,1.4209,1.4223,1.4237,1.4238,1.4242,1.4247,1.4246,1.4245,1.4247,1.4246,1.4246,1.4246,0,1.3907,1.3945,1.3966,1.3979,1.4019,1.4029,1.4046,1.4074,1.409,1.4116,1.4127,1.4154,1.4169,1.4191,1.4217,1.4217,1.4247,1.4253,1.426,1.426,1.4266,1.4265,1.4268,1.4273,1.4273,1.4273,1.4273,0,1.3906,1.3922,1.396,1.3973,1.3992,1.4019,1.4038,1.4057,1.4083,1.4101,1.4123,1.414,1.4173,1.4194,1.4215,1.424,1.4246,1.4259,1.4264,1.4257,1.4256,1.4267,1.4268,1.4274,1.4273,1.4273,1.4273,0,1.3892,1.3917,1.3943,1.3979,1.3989,1.4001,1.4033,1.4048,1.4069,1.4092,1.41,1.4132,1.416,1.4187,1.4224,1.4237,1.4262,1.4269,1.4253,1.4256,1.4262,1.4261,1.4273,1.4277,1.4278,1.4278,1.4278,0,1.389,1.3903,1.3941,1.3955,1.3972,1.3994,1.4011,1.4038,1.4055,1.4089,1.4101,1.4129,1.4154,1.4196,1.4224,1.4253,1.4262,1.4264,1.4266,1.426,1.4264,1.4263,1.4265,1.4263,1.4263,1.4263,1.4263,0,1.3885,1.3898,1.392,1.3948,1.3968,1.3991,1.4015,1.4026,1.4058,1.4076,1.4104,1.4123,1.4161,1.419,1.4223,1.4243,1.4259,1.4262,1.4265,1.4259,1.4249,1.4256,1.4251,1.4261,1.4261,1.4262,1.4262,1.4262,1.3878,1.3892,1.3921,1.3946,1.3968,1.399,1.4007,1.403,1.4053,1.4086,1.4101,1.413,1.4161,1.4206,1.4225,1.4249,1.4254,1.4258,1.4259,1.426,1.426,1.4245,1.4255,1.4255,1.4255,1.4255,1.4255,0,1.3876,1.3896,1.3919,1.3953,1.3973,1.3986,1.4015,1.4031,1.4056,1.4083,1.4107,1.414,1.4169,1.42,1.4231,1.4244,1.4253,1.4252,1.4252,1.4256,1.4253,1.4248,1.4245,1.4245,1.4245,1.4245,1.4245,1.4245,1.3877,1.3901,1.3917,1.3953,1.3974,1.4002,1.4017,1.4039,1.4061,1.4097,1.4121,1.4141,1.417,1.4204,1.4231,1.424,1.4251,1.4248,1.4259,1.4255,1.4256,1.4257,1.4252,1.425,1.425,1.4261,1.4261,1.4261]}]]